Weather History for KTUS - August, 2014

Change the Weather History Date:

Wednesday, August 27, 2014

  Actual Average Record
Temperature  
Mean Temperature 85 °F 85 °F  
Max Temperature 96 °F 98 °F 108 °F (2011)
Min Temperature 73 °F 73 °F 60 °F (1900)
Degree Days  
Heating Degree Days 0 0  
Month to date heating degree days 0 0  
Since 1 June heating degree days 0 0  
Since 1 July heating degree days 0 0  
Cooling Degree Days 20 20  
Month to date cooling degree days 542 546  
Year to date cooling degree days 2600 2325  
Since 1 June cooling degree days 1997 1823  
Growing Degree Days 34 (Base 50)    
Moisture  
Dew Point 61 °F    
Average Humidity 53    
Maximum Humidity 79    
Minimum Humidity 26    
Precipitation  
Precipitation 0.00 in 0.07 in 0.97 in (1999)
Month to date precipitation 1.89 2.13  
Year to date precipitation 3.93 7.65  
Sea Level Pressure  
Sea Level Pressure 29.96 in    
Wind  
Wind Speed 5 mph (North)    
Max Wind Speed 15 mph    
Max Gust Speed 20 mph    
Visibility 10 miles    
Events      
T = Trace of Precipitation, MM = Missing Value Source: NWS Daily Summary

Daily Weather History Graph

Daily Weather History Graph

Search for Another Location

Airport or City:

Trip Planner

Search our weather history database for the weather conditions in past years. The results will help you decide how hot, cold, wet, or windy it might be!

Date:

Astronomy

Aug. 27, 2014 Rise Set
Actual Time 5:55 AM MST 6:54 PM MST
Civil Twilight 5:30 AM MST 7:19 PM MST
Nautical Twilight 5:01 AM MST 7:48 PM MST
Astronomical Twilight 4:30 AM MST 8:19 PM MST
Moon 7:45 AM MST (8/27) 7:59 PM MST (8/27)
Length of Visible Light 13h 48m
Length of Day
12h 58m
Waxing Crescent, 4% of the Moon is Illuminated
Aug 27
Waxing Crescent
Sep 2
First Quarter
Sep 8
Full
Sep 15
Last Quarter
Sep 23
New

Hourly Weather History & Observations

Time (MST) Temp. Heat Index Dew Point Humidity Pressure Visibility Wind Dir Wind Speed Gust Speed Precip Events Conditions
12:53 AM 75.9 °F - 64.9 °F 69% 29.94 in 10.0 mi ESE 4.6 mph - N/A   Clear
1:53 AM 75.0 °F - 64.9 °F 71% 29.95 in 10.0 mi Calm Calm - N/A   Clear
2:53 AM 73.0 °F - 66.0 °F 79% 29.95 in 10.0 mi Calm Calm - N/A   Clear
3:53 AM 73.9 °F - 66.0 °F 76% 29.96 in 10.0 mi SE 6.9 mph - N/A   Clear
4:53 AM 73.9 °F - 66.0 °F 76% 29.96 in 10.0 mi SE 5.8 mph - N/A   Clear
5:53 AM 73.0 °F - 66.0 °F 79% 29.99 in 10.0 mi SE 4.6 mph - N/A   Clear
6:53 AM 75.0 °F - 66.0 °F 73% 30.00 in 10.0 mi SSE 4.6 mph - N/A   Clear
7:53 AM 77.0 °F - 66.2 °F 69% 30.14 in 10.0 mi SSE 3.5 mph - N/A   Clear
8:53 AM 80.1 °F 82.3 °F 66.9 °F 64% 30.01 in 10.0 mi Calm Calm - N/A   Clear
9:53 AM 84.0 °F 85.8 °F 64.9 °F 53% 30.02 in 10.0 mi SSW 3.5 mph - N/A   Clear
10:53 AM 88.0 °F 89.3 °F 64.0 °F 45% 30.00 in 10.0 mi NNE 5.8 mph - N/A   Clear
11:53 AM 89.6 °F 90.1 °F 62.6 °F 40% 30.12 in 10.0 mi North - - N/A   Partly Cloudy
11:59 AM 91.9 °F 91.8 °F 61.0 °F 35% 30.12 in 10.0 mi North 3.5 mph - N/A   Partly Cloudy
12:53 PM 93.9 °F 94.0 °F 61.0 °F 33% 29.96 in 10.0 mi Variable 3.5 mph - N/A   Partly Cloudy
1:53 PM 95.0 °F 93.7 °F 57.0 °F 28% 29.93 in 10.0 mi WNW 8.1 mph - N/A   Clear
2:53 PM 95.0 °F 94.0 °F 57.9 °F 29% 29.91 in 10.0 mi NW 9.2 mph - N/A   Partly Cloudy
3:53 PM 95.0 °F 93.4 °F 55.9 °F 27% 29.89 in 10.0 mi NNW 6.9 mph - N/A   Clear
4:53 PM 95.0 °F 94.0 °F 57.9 °F 29% 29.88 in 10.0 mi North 6.9 mph - N/A   Clear
5:53 PM 93.9 °F 92.0 °F 55.0 °F 27% 29.88 in 10.0 mi NW 9.2 mph - N/A   Clear
6:53 PM 91.9 °F - 51.1 °F 25% 29.89 in 10.0 mi NW 10.4 mph - N/A   Clear
7:53 PM 91.0 °F 88.9 °F 55.0 °F 29% 29.91 in 10.0 mi NNW 5.8 mph - N/A   Clear
8:53 PM 88.0 °F 86.5 °F 55.9 °F 34% 29.92 in 10.0 mi NNW 5.8 mph - N/A   Clear
9:53 PM 87.1 °F 85.3 °F 55.0 °F 33% 29.92 in 10.0 mi North 5.8 mph - N/A   Clear
10:53 PM 86.0 °F 84.7 °F 55.9 °F 36% 29.91 in 10.0 mi Calm Calm - N/A   Clear
11:53 PM 81.0 °F 81.0 °F 57.0 °F 44% 29.92 in 10.0 mi SSE 5.8 mph - N/A   Clear